Location: *
(43.9905°S, 176.4941°W)
Time: 14:14:46
(UTC+00:00)

Cosmos 1937 Rocket - Pass Details

Date: 08 December 2019
Orbit: 746 x 781 km, 74.0° (Epoch: 26 January)

Event Time Altitude Azimuth Distance (km) Brightness Sun altitude
Rises 10:03:50 0° 198° (SSW) 3,274 8.4 -19.9°
Reaches altitude 10° 10:06:16 10° 195° (SSW) 2,335 7.2 -20.1°
Maximum altitude 10:11:32 62° 113° (ESE) 864 3.7 -20.4°
Enters shadow 10:13:17 40° 51° (NE) 1,124 3.9 -20.6°
